When you browse on this site, cookies collect data to enhance your experience and personalize the content and advertising you see.
Visit our Privacy Policy to learn more. By continuing to use the site, you agree to this use of cookies and data.

Meteo pe oră la Burgas

Astăzi, 14 Iulie, Marţi

Timp Temperatura Precipitaţii Vânt Presiune Umiditate
00:00 +15°C° 0 mm 4 m/s 760 mmHg 74%
01:00 +16°C° 0 mm 3 m/s 760 mmHg 76%
02:00 +14°C° 0 mm 3 m/s 760 mmHg 78%
03:00 +14°C° 0 mm 3 m/s 760 mmHg 79%
04:00 +13°C° 0 mm 3 m/s 760 mmHg 81%
05:00 +13°C° 0 mm 3 m/s 760 mmHg 83%
06:00 +16°C° 0 mm 3 m/s 760 mmHg 74%
07:00 +18°C° 0 mm 4 m/s 760 mmHg 65%
08:00 +20°C° 0 mm 4 m/s 760 mmHg 57%
09:00 +22°C° 0 mm 4 m/s 760 mmHg 50%
10:00 +23°C° 0 mm 4 m/s 760 mmHg 44%
11:00 +26°C° 0 mm 5 m/s 760 mmHg 37%
12:00 +26°C° 0 mm 5 m/s 760 mmHg 37%
13:00 +27°C° 0 mm 5 m/s 760 mmHg 36%
14:00 +27°C° 0 mm 5 m/s 759 mmHg 35%
15:00 +26°C° 0 mm 5 m/s 759 mmHg 38%
16:00 +26°C° 0 mm 5 m/s 759 mmHg 41%
17:00 +25°C° 0 mm 4 m/s 759 mmHg 43%
18:00 +22°C° 0 mm 4 m/s 759 mmHg 51%
19:00 +20°C° 0 mm 3 m/s 759 mmHg 59%
20:00 +18°C° 0 mm 3 m/s 760 mmHg 66%
21:00 +18°C° 0 mm 2 m/s 760 mmHg 69%
22:00 +17°C° 0 mm 2 m/s 760 mmHg 72%
23:00 +16°C° 0 mm 1 m/s 760 mmHg 75%

Mâine, 15 Iulie, Miercuri

Timp Temperatura Precipitaţii Vânt Presiune Umiditate
00:00 +16°C° 0 mm 1 m/s 760 mmHg 76%
01:00 +16°C° 0 mm 1 m/s 760 mmHg 77%
02:00 +15°C° 0 mm 1 m/s 760 mmHg 78%
03:00 +15°C° 0 mm 1 m/s 760 mmHg 78%
04:00 +15°C° 0 mm 1 m/s 760 mmHg 79%
05:00 +15°C° 0 mm 1 m/s 760 mmHg 80%
06:00 +18°C° 0 mm 1 m/s 760 mmHg 72%
07:00 +21°C° 0 mm 1 m/s 760 mmHg 63%
08:00 +23°C° 0 mm 1 m/s 760 mmHg 55%
09:00 +24°C° 0 mm 2 m/s 760 mmHg 50%
10:00 +26°C° 0 mm 2 m/s 760 mmHg 44%
11:00 +27°C° 0 mm 3 m/s 760 mmHg 39%
12:00 +27°C° 0 mm 3 m/s 760 mmHg 39%
13:00 +28°C° 0 mm 4 m/s 760 mmHg 39%
14:00 +28°C° 0 mm 4 m/s 760 mmHg 38%
15:00 +28°C° 0 mm 4 m/s 760 mmHg 40%
16:00 +27°C° 0 mm 4 m/s 759 mmHg 42%
17:00 +26°C° 0 mm 4 m/s 759 mmHg 45%
18:00 +23°C° 0 mm 4 m/s 759 mmHg 51%
19:00 +21°C° 0 mm 3 m/s 759 mmHg 57%
20:00 +19°C° 0 mm 3 m/s 759 mmHg 63%
21:00 +19°C° 0 mm 2 m/s 760 mmHg 66%
22:00 +18°C° 0 mm 2 m/s 760 mmHg 68%
23:00 +18°C° 0 mm 1 m/s 760 mmHg 71%

Poimâine, 16 Iulie, Joi

Timp Temperatura Precipitaţii Vânt Presiune Umiditate
00:00 +18°C° 0 mm 1 m/s 759 mmHg 72%
01:00 +18°C° 0 mm 1 m/s 759 mmHg 74%
02:00 +16°C° 0 mm 1 m/s 759 mmHg 76%
03:00 +16°C° 0 mm 1 m/s 759 mmHg 76%
04:00 +16°C° 0 mm 1 m/s 759 mmHg 76%
05:00 +16°C° 0 mm 1 m/s 758 mmHg 77%
06:00 +19°C° 0 mm 1 m/s 758 mmHg 69%
07:00 +22°C° 0 mm 1 m/s 758 mmHg 61%
08:00 +24°C° 0 mm 1 m/s 758 mmHg 53%
09:00 +25°C° 0 mm 1 m/s 758 mmHg 48%
10:00 +27°C° 0 mm 2 m/s 758 mmHg 44%
11:00 +28°C° 0 mm 3 m/s 758 mmHg 39%
12:00 +28°C° 0 mm 3 m/s 757 mmHg 39%
13:00 +29°C° 0 mm 4 m/s 757 mmHg 38%
14:00 +29°C° 0 mm 5 m/s 757 mmHg 38%
15:00 +28°C° 0 mm 4 m/s 757 mmHg 41%
16:00 +27°C° 0 mm 4 m/s 756 mmHg 43%
17:00 +27°C° 0 mm 4 m/s 756 mmHg 45%
18:00 +25°C° 0 mm 4 m/s 756 mmHg 51%
19:00 +22°C° 0 mm 3 m/s 756 mmHg 57%
20:00 +21°C° 0 mm 3 m/s 757 mmHg 63%
21:00 +20°C° 0 mm 2 m/s 757 mmHg 68%
22:00 +20°C° 0 mm 1 m/s 757 mmHg 72%
23:00 +19°C° 0 mm 1 m/s 757 mmHg 77%

17 Iulie, Vineri

Timp Temperatura Precipitaţii Vânt Presiune Umiditate
00:00 +19°C° 0 mm 1 m/s 757 mmHg 78%
01:00 +19°C° 0 mm 1 m/s 757 mmHg 79%
02:00 +18°C° 0 mm 1 m/s 756 mmHg 80%
03:00 +18°C° 0 mm 1 m/s 756 mmHg 79%
04:00 +18°C° 0 mm 1 m/s 756 mmHg 79%
05:00 +18°C° 0 mm 1 m/s 756 mmHg 78%
06:00 +20°C° 0 mm 1 m/s 756 mmHg 69%
07:00 +23°C° 0 mm 1 m/s 756 mmHg 60%
08:00 +25°C° 0 mm 1 m/s 757 mmHg 50%
09:00 +27°C° 0 mm 2 m/s 757 mmHg 46%
10:00 +28°C° 0 mm 3 m/s 757 mmHg 42%
11:00 +29°C° 0 mm 4 m/s 756 mmHg 38%
12:00 +30°C° 0 mm 4 m/s 756 mmHg 37%
13:00 +30°C° 0 mm 5 m/s 756 mmHg 37%
14:00 +30°C° 0 mm 5 m/s 756 mmHg 36%
15:00 +29°C° 0 mm 5 m/s 756 mmHg 39%
16:00 +28°C° 0 mm 5 m/s 756 mmHg 41%
17:00 +28°C° 0 mm 5 m/s 756 mmHg 44%
18:00 +26°C° 0 mm 4 m/s 756 mmHg 54%
19:00 +22°C° 0 mm 3 m/s 756 mmHg 64%
20:00 +20°C° 0 mm 3 m/s 756 mmHg 73%
21:00 +20°C° 0 mm 2 m/s 756 mmHg 77%
22:00 +19°C° 0 mm 2 m/s 756 mmHg 80%
23:00 +18°C° 0 mm 2 m/s 757 mmHg 83%

18 Iulie, Sâmbătă

Timp Temperatura Precipitaţii Vânt Presiune Umiditate
00:00 +18°C° 0 mm 2 m/s 756 mmHg 84%
01:00 +18°C° 0 mm 2 m/s 756 mmHg 85%
02:00 +18°C° 0 mm 2 m/s 756 mmHg 86%
03:00 +18°C° 0 mm 2 m/s 756 mmHg 87%
04:00 +17°C° 0 mm 2 m/s 756 mmHg 88%
05:00 +17°C° 0 mm 2 m/s 756 mmHg 89%
06:00 +20°C° 0 mm 2 m/s 756 mmHg 81%
07:00 +23°C° 0 mm 2 m/s 756 mmHg 72%
08:00 +25°C° 0 mm 2 m/s 756 mmHg 64%
09:00 +27°C° 0 mm 3 m/s 756 mmHg 58%
10:00 +29°C° 0 mm 4 m/s 756 mmHg 52%
11:00 +32°C° 0 mm 5 m/s 755 mmHg 47%
12:00 +32°C° 0 mm 5 m/s 755 mmHg 46%
13:00 +32°C° 0 mm 6 m/s 755 mmHg 44%
14:00 +32°C° 0 mm 6 m/s 755 mmHg 43%
15:00 +32°C° 0 mm 6 m/s 755 mmHg 45%
16:00 +30°C° 0 mm 6 m/s 755 mmHg 48%
17:00 +30°C° 0 mm 6 m/s 754 mmHg 50%
18:00 +28°C° 0 mm 5 m/s 755 mmHg 61%
19:00 +26°C° 0 mm 4 m/s 755 mmHg 73%
20:00 +24°C° 0 mm 3 m/s 755 mmHg 84%
21:00 +22°C° 0 mm 3 m/s 755 mmHg 87%
22:00 +21°C° 0 mm 3 m/s 755 mmHg 90%
23:00 +21°C° 0 mm 2 m/s 755 mmHg 93%

19 Iulie, Duminică

Timp Temperatura Precipitaţii Vânt Presiune Umiditate
00:00 +21°C° 0 mm 2 m/s 755 mmHg 93%
01:00 +20°C° 0 mm 2 m/s 755 mmHg 92%
02:00 +20°C° 0 mm 2 m/s 755 mmHg 92%
03:00 +19°C° 0 mm 2 m/s 755 mmHg 93%
04:00 +19°C° 0 mm 3 m/s 755 mmHg 93%
05:00 +18°C° 0 mm 3 m/s 755 mmHg 94%
06:00 +20°C° 0 mm 3 m/s 755 mmHg 85%
07:00 +22°C° 0 mm 3 m/s 755 mmHg 76%
08:00 +25°C° 0 mm 3 m/s 755 mmHg 66%
09:00 +27°C° 0 mm 3 m/s 755 mmHg 60%
10:00 +29°C° 0 mm 3 m/s 755 mmHg 53%
11:00 +31°C° 0 mm 3 m/s 755 mmHg 46%
12:00 +32°C° 0 mm 4 m/s 755 mmHg 46%
13:00 +32°C° 0 mm 5 m/s 755 mmHg 46%
14:00 +32°C° 0 mm 5 m/s 755 mmHg 47%
15:00 +30°C° 0 mm 5 m/s 755 mmHg 47%
16:00 +30°C° 0 mm 6 m/s 755 mmHg 48%
17:00 +30°C° 0 mm 6 m/s 755 mmHg 49%
18:00 +28°C° 0 mm 5 m/s 755 mmHg 53%
19:00 +26°C° 0 mm 4 m/s 755 mmHg 58%
20:00 +24°C° 0 mm 3 m/s 756 mmHg 62%
21:00 +24°C° 0 mm 3 m/s 756 mmHg 64%
22:00 +22°C° 0 mm 3 m/s 756 mmHg 66%
23:00 +21°C° 0 mm 3 m/s 757 mmHg 68%
Arată mai mult